ヒル彗星

465P/Hill (2008)

English version
Home page
Updated on July 27, 2023

---------------------------------------------------------------------

・ プロフィール

符号 465P/2008 L2
発見日 2008年6月12日
発見光度 18.3等
発見者 R. E. Hill (Catalina Sky Survey)

・ 写真集

・ 軌道要素

                    Epoch = 2008 Aug.  2.0 TT
     T = 2008 Aug. 18.59446 TT        Peri. = 141.31392
     e = 0.6137675                    Node  = 217.98436 2000.0
     q = 2.3173377 AU                 Incl. =  25.86017
       a =  5.9998511 AU   n = 0.06706460   P =  14.70 years

・ 星図

・ 光度変化

        m1 = 4.3 + 5 logΔ + 30.0 log r(t - 50)

---------------------------------------------------------------------

軌道要素は、CBET 5270に掲載されたものです。
星図はステラナビゲータ Ver.8 (アストロアーツ) で作成したものです。
光度グラフはComet for Windowsで作成したものです。

---------------------------------------------------------------------

Copyright(C) Seiichi Yoshida (comet@aerith.net). All rights reserved.